WGN618 KMSP-KPHX

Flight info

Callsign WGN618
Flight time 2h 25m
Altitude 34000
Route SCHEP1 RXANN TEYOU LLUKY PUB ALS J102 GUP EAGUL6
Aircraft MD1F/H-SDE1E2E3FGHIJ2J3J4J5M1RWXY/LB1D1

Departure

Time 2026-05-06 17:45
Airport Minneapolis–Saint Paul International Airport / Wold–Chamberlain Field (KMSP)

Arrival

Time 2026-05-06 20:10
Airport Phoenix Sky Harbor International Airport (KPHX)
Time Latitude Longitude Altitude Speed Heading
2026-05-06 17:20 44.87738 -93.24414 836 ft 0 kts 182°
2026-05-06 17:30 44.87748 -93.24413 836 ft 3 kts 182°
2026-05-06 17:30 44.87767 -93.24412 837 ft 1 kts 181°
2026-05-06 17:30 44.87778 -93.24412 837 ft 1 kts 174°
2026-05-06 17:31 44.87786 -93.24415 837 ft 2 kts 158°
2026-05-06 17:31 44.87794 -93.24420 837 ft 1 kts 140°
2026-05-06 17:31 44.87799 -93.24428 838 ft 1 kts 124°
2026-05-06 17:31 44.87802 -93.24436 838 ft 0 kts 109°
2026-05-06 17:32 44.87804 -93.24446 838 ft 0 kts 95°
2026-05-06 17:32 44.87804 -93.24453 838 ft 0 kts 91°
2026-05-06 17:34 44.87804 -93.24438 838 ft 3 kts 91°
2026-05-06 17:34 44.87806 -93.24377 838 ft 7 kts 81°
2026-05-06 17:34 44.87816 -93.24308 838 ft 0 kts 78°
2026-05-06 17:36 44.87816 -93.24307 838 ft 0 kts 78°
2026-05-06 17:36 44.87822 -93.24265 837 ft 7 kts 78°
2026-05-06 17:37 44.87814 -93.24161 835 ft 13 kts 133°
2026-05-06 17:37 44.87706 -93.24104 835 ft 16 kts 170°
2026-05-06 17:37 44.87610 -93.24071 835 ft 11 kts 137°
2026-05-06 17:37 44.87600 -93.23945 834 ft 14 kts 82°
2026-05-06 17:38 44.87615 -93.23783 832 ft 17 kts 94°
2026-05-06 17:38 44.87580 -93.23602 832 ft 18 kts 90°
2026-05-06 17:38 44.87658 -93.23445 832 ft 19 kts 46°
2026-05-06 17:38 44.87765 -93.23296 832 ft 21 kts 45°
2026-05-06 17:39 44.87876 -93.23138 832 ft 22 kts 45°
2026-05-06 17:39 44.87995 -93.22971 832 ft 23 kts 44°
2026-05-06 17:39 44.88118 -93.22800 835 ft 23 kts 45°
2026-05-06 17:39 44.88238 -93.22630 835 ft 19 kts 45°
2026-05-06 17:40 44.88253 -93.22488 835 ft 15 kts 118°
2026-05-06 17:40 44.88192 -93.22349 835 ft 17 kts 123°
2026-05-06 17:40 44.88120 -93.22189 832 ft 20 kts 122°
2026-05-06 17:40 44.88038 -93.22000 832 ft 22 kts 121°
2026-05-06 17:41 44.87946 -93.21787 828 ft 25 kts 122°
2026-05-06 17:41 44.87846 -93.21557 828 ft 26 kts 122°
2026-05-06 17:41 44.87737 -93.21307 825 ft 29 kts 122°
2026-05-06 17:41 44.87618 -93.21034 822 ft 31 kts 122°
2026-05-06 17:42 44.87484 -93.20737 816 ft 34 kts 140°
2026-05-06 17:42 44.87318 -93.20490 808 ft 17 kts 122°
2026-05-06 17:42 44.87249 -93.20329 806 ft 10 kts 121°
2026-05-06 17:42 44.87261 -93.20229 807 ft 4 kts 41°
2026-05-06 17:43 44.87262 -93.20228 806 ft 0 kts 41°
2026-05-06 17:43 44.87268 -93.20219 807 ft 3 kts 40°
2026-05-06 17:44 44.87320 -93.20171 808 ft 13 kts 22°
2026-05-06 17:44 44.87396 -93.20219 809 ft 0 kts 305°
2026-05-06 17:44 44.87396 -93.20220 809 ft 0 kts 305°
2026-05-06 17:44 44.87457 -93.20358 810 ft 48 kts 301°
2026-05-06 17:45 44.87781 -93.21109 824 ft 123 kts 302°
2026-05-06 17:45 44.88356 -93.22454 851 ft 181 kts 299°
2026-05-06 17:45 44.89040 -93.24036 1700 ft 173 kts 302°
2026-05-06 17:45 44.89697 -93.25498 2552 ft 170 kts 302°
2026-05-06 17:46 44.90335 -93.26917 3046 ft 174 kts 303°
2026-05-06 17:46 44.91009 -93.28415 3537 ft 175 kts 303°
2026-05-06 17:46 44.91439 -93.30085 3983 ft 177 kts 270°
2026-05-06 17:46 44.90958 -93.31884 4264 ft 197 kts 231°
2026-05-06 17:47 44.89706 -93.33225 4448 ft 220 kts 223°
2026-05-06 17:47 44.88409 -93.34991 4612 ft 244 kts 233°
2026-05-06 17:47 44.87186 -93.36971 5178 ft 257 kts 232°
2026-05-06 17:47 44.85909 -93.38994 5914 ft 269 kts 231°
2026-05-06 17:48 44.84523 -93.41065 6791 ft 276 kts 230°
2026-05-06 17:48 44.83045 -93.43177 7759 ft 281 kts 229°
2026-05-06 17:48 44.81543 -93.45291 8738 ft 285 kts 229°
2026-05-06 17:48 44.80037 -93.47411 9714 ft 289 kts 230°
2026-05-06 17:49 44.78461 -93.49654 10522 ft 302 kts 230°
2026-05-06 17:49 44.76802 -93.52051 10792 ft 332 kts 230°
2026-05-06 17:49 44.75024 -93.54597 11178 ft 355 kts 229°
2026-05-06 17:49 44.73222 -93.57152 11915 ft 366 kts 229°
2026-05-06 17:50 44.71395 -93.59750 12784 ft 372 kts 230°
2026-05-06 17:50 44.69629 -93.62557 13689 ft 373 kts 237°
2026-05-06 17:50 44.68019 -93.65585 14572 ft 377 kts 237°
2026-05-06 17:50 44.66371 -93.68763 15492 ft 382 kts 237°
2026-05-06 17:51 44.64734 -93.71944 16381 ft 386 kts 238°
2026-05-06 17:51 44.63103 -93.75089 17254 ft 391 kts 237°
2026-05-06 17:51 44.61414 -93.78319 18130 ft 395 kts 237°
2026-05-06 17:51 44.59730 -93.81541 18993 ft 398 kts 238°
2026-05-06 17:52 44.58052 -93.84782 19776 ft 403 kts 238°
2026-05-06 17:52 44.56309 -93.88163 20583 ft 407 kts 238°
2026-05-06 17:52 44.54464 -93.91683 21398 ft 413 kts 238°
2026-05-06 17:52 44.52538 -93.95316 22207 ft 418 kts 238°
2026-05-06 17:53 44.50581 -93.99024 23009 ft 424 kts 238°
2026-05-06 17:53 44.48567 -94.02869 23798 ft 430 kts 238°
2026-05-06 17:53 44.46486 -94.06835 24626 ft 435 kts 238°
2026-05-06 17:53 44.44409 -94.10774 25389 ft 439 kts 238°
2026-05-06 17:54 44.42283 -94.14819 26173 ft 442 kts 238°
2026-05-06 17:54 44.40177 -94.18849 26918 ft 445 kts 238°
2026-05-06 17:54 44.37998 -94.22948 27636 ft 448 kts 237°
2026-05-06 17:54 44.35808 -94.27032 28234 ft 452 kts 237°
2026-05-06 17:55 44.33603 -94.31171 28836 ft 454 kts 238°
2026-05-06 17:55 44.31438 -94.35263 29435 ft 456 kts 238°
2026-05-06 17:55 44.29233 -94.39407 30164 ft 454 kts 237°
2026-05-06 17:55 44.27030 -94.43533 30830 ft 452 kts 238°
2026-05-06 17:56 44.24840 -94.47664 31375 ft 450 kts 238°
2026-05-06 17:56 44.22689 -94.51746 31938 ft 449 kts 238°
2026-05-06 17:56 44.20502 -94.55840 32453 ft 448 kts 237°
2026-05-06 17:56 44.18294 -94.59907 32937 ft 447 kts 237°
2026-05-06 17:57 44.16075 -94.64002 33346 ft 448 kts 237°
2026-05-06 17:57 44.13860 -94.68108 33864 ft 447 kts 237°
2026-05-06 17:57 44.11659 -94.72196 33991 ft 444 kts 237°
2026-05-06 17:57 44.09512 -94.76172 34002 ft 442 kts 237°
2026-05-06 17:58 44.05165 -94.84248 34053 ft 444 kts 237°
2026-05-06 17:58 44.00801 -94.92350 34059 ft 445 kts 237°
2026-05-06 17:59 43.96496 -95.00555 34059 ft 443 kts 237°
2026-05-06 17:59 43.92198 -95.08636 34076 ft 442 kts 238°
2026-05-06 18:00 43.87875 -95.16773 34090 ft 442 kts 238°
2026-05-06 18:00 43.83575 -95.24875 34092 ft 442 kts 238°
2026-05-06 18:01 43.79297 -95.32944 34086 ft 442 kts 238°
2026-05-06 18:01 43.75036 -95.40997 34082 ft 442 kts 238°
2026-05-06 18:02 43.70818 -95.48985 34094 ft 441 kts 238°
2026-05-06 18:02 43.66606 -95.56977 34098 ft 439 kts 238°
2026-05-06 18:03 43.62381 -95.65002 34102 ft 438 kts 238°
2026-05-06 18:03 43.58126 -95.73096 34110 ft 439 kts 238°
2026-05-06 18:04 43.53943 -95.81055 34102 ft 438 kts 238°
2026-05-06 18:04 43.49755 -95.89049 34109 ft 438 kts 238°
2026-05-06 18:05 43.45468 -95.96940 34102 ft 437 kts 237°
2026-05-06 18:05 43.41180 -96.04887 34095 ft 438 kts 237°
2026-05-06 18:06 43.36889 -96.12837 34097 ft 437 kts 238°
2026-05-06 18:06 43.32608 -96.20789 34093 ft 439 kts 237°
2026-05-06 18:07 43.28784 -96.29116 34083 ft 434 kts 246°
2026-05-06 18:07 43.25711 -96.37965 34084 ft 433 kts 248°
2026-05-06 18:08 43.22737 -96.46815 34086 ft 433 kts 248°
2026-05-06 18:08 43.19728 -96.55732 34077 ft 433 kts 249°
2026-05-06 18:09 43.16731 -96.64646 34075 ft 435 kts 249°
2026-05-06 18:09 43.13735 -96.73580 34084 ft 436 kts 248°
2026-05-06 18:10 43.10736 -96.82538 34079 ft 434 kts 248°
2026-05-06 18:10 43.07756 -96.91470 34082 ft 434 kts 248°
2026-05-06 18:11 43.04784 -97.00417 34086 ft 436 kts 249°
2026-05-06 18:11 43.01814 -97.09387 34092 ft 437 kts 249°
2026-05-06 18:12 42.98848 -97.18352 34097 ft 436 kts 249°
2026-05-06 18:12 42.95913 -97.27260 34102 ft 435 kts 249°
2026-05-06 18:13 42.92977 -97.36171 34113 ft 434 kts 249°
2026-05-06 18:13 42.89957 -97.45044 34119 ft 435 kts 248°
2026-05-06 18:14 42.86872 -97.53822 34119 ft 436 kts 248°
2026-05-06 18:14 42.83808 -97.62571 34108 ft 436 kts 248°
2026-05-06 18:15 42.80747 -97.71360 34104 ft 436 kts 248°
2026-05-06 18:15 42.77714 -97.80094 34104 ft 435 kts 248°
2026-05-06 18:16 42.74690 -97.88819 34105 ft 434 kts 248°
2026-05-06 18:16 42.71675 -97.97555 34113 ft 436 kts 248°
2026-05-06 18:17 42.68636 -98.06372 34111 ft 436 kts 248°
2026-05-06 18:17 42.65611 -98.15166 34115 ft 434 kts 248°
2026-05-06 18:18 42.62615 -98.23894 34109 ft 435 kts 248°
2026-05-06 18:18 42.59610 -98.32679 34099 ft 435 kts 248°
2026-05-06 18:19 42.56599 -98.41485 34096 ft 436 kts 248°
2026-05-06 18:19 42.53502 -98.50203 34102 ft 435 kts 248°
2026-05-06 18:20 42.50396 -98.58948 34098 ft 437 kts 245°
2026-05-06 18:20 42.46524 -98.67089 34109 ft 442 kts 234°
2026-05-06 18:21 42.41938 -98.74155 34123 ft 444 kts 232°
2026-05-06 18:21 42.37128 -98.81321 34125 ft 444 kts 232°
2026-05-06 18:22 42.32339 -98.88517 34119 ft 442 kts 232°
2026-05-06 18:22 42.27565 -98.95638 34113 ft 442 kts 232°
2026-05-06 18:23 42.22817 -99.02769 34105 ft 442 kts 232°
2026-05-06 18:23 42.18068 -99.09872 34097 ft 442 kts 232°
2026-05-06 18:24 42.13389 -99.16913 34088 ft 442 kts 232°
2026-05-06 18:24 42.08598 -99.24097 34085 ft 443 kts 232°
2026-05-06 18:25 42.03971 -99.31065 34080 ft 441 kts 232°
2026-05-06 18:25 41.99316 -99.38065 34079 ft 440 kts 233°
2026-05-06 18:26 41.94640 -99.45116 34076 ft 442 kts 232°
2026-05-06 18:26 41.89936 -99.52209 34080 ft 441 kts 233°
2026-05-06 18:27 41.85487 -99.58732 34087 ft 442 kts 231°
2026-05-06 18:27 41.80800 -99.65505 34087 ft 443 kts 231°
2026-05-06 18:28 41.76328 -99.72004 34094 ft 443 kts 231°
2026-05-06 18:28 41.71737 -99.78683 34095 ft 442 kts 231°
2026-05-06 18:29 41.67065 -99.85487 34089 ft 441 kts 231°
2026-05-06 18:29 41.62336 -99.92386 34087 ft 441 kts 232°
2026-05-06 18:30 41.57642 -99.99230 34085 ft 442 kts 231°
2026-05-06 18:30 41.52887 -100.06180 34080 ft 442 kts 232°
2026-05-06 18:31 41.48113 -100.13160 34077 ft 443 kts 231°
2026-05-06 18:31 41.43505 -100.19898 34079 ft 442 kts 231°
2026-05-06 18:32 41.38720 -100.26909 34077 ft 441 kts 232°
2026-05-06 18:32 41.33903 -100.33971 34083 ft 442 kts 232°
2026-05-06 18:33 41.29051 -100.40897 34087 ft 443 kts 231°
2026-05-06 18:33 41.24156 -100.47782 34085 ft 443 kts 231°
2026-05-06 18:34 41.19280 -100.54677 34088 ft 442 kts 231°
2026-05-06 18:34 41.14458 -100.61507 34094 ft 442 kts 231°
2026-05-06 18:35 41.09659 -100.68308 34107 ft 443 kts 231°
2026-05-06 18:35 41.04899 -100.75059 34108 ft 443 kts 231°
2026-05-06 18:36 41.00134 -100.81833 34108 ft 441 kts 231°
2026-05-06 18:36 40.95256 -100.88759 34106 ft 440 kts 231°
2026-05-06 18:37 40.90376 -100.95709 34099 ft 440 kts 231°
2026-05-06 18:37 40.85678 -101.02390 34089 ft 441 kts 231°
2026-05-06 18:38 40.80923 -101.09169 34090 ft 441 kts 231°
2026-05-06 18:38 40.76099 -101.16044 34085 ft 442 kts 231°
2026-05-06 18:39 40.71124 -101.22891 34083 ft 440 kts 230°
2026-05-06 18:40 40.63721 -101.33062 34088 ft 440 kts 230°
2026-05-06 18:40 40.58818 -101.39822 34091 ft 440 kts 230°
2026-05-06 18:41 40.53875 -101.46648 34095 ft 440 kts 230°
2026-05-06 18:41 40.48885 -101.53529 34106 ft 440 kts 230°
2026-05-06 18:42 40.43941 -101.60375 34113 ft 440 kts 230°
2026-05-06 18:42 40.39135 -101.67012 34123 ft 440 kts 230°
2026-05-06 18:43 40.34546 -101.73376 34118 ft 441 kts 230°
2026-05-06 18:43 40.29828 -101.79901 34114 ft 440 kts 230°
2026-05-06 18:44 40.25032 -101.86565 34114 ft 440 kts 230°
2026-05-06 18:44 40.20124 -101.93364 34114 ft 440 kts 230°
2026-05-06 18:45 40.15133 -102.00143 34120 ft 441 kts 229°
2026-05-06 18:45 40.10082 -102.06879 34109 ft 443 kts 229°
2026-05-06 18:46 40.05058 -102.13620 34105 ft 441 kts 229°
2026-05-06 18:46 40.00065 -102.20322 34114 ft 440 kts 229°
2026-05-06 18:47 39.95077 -102.27035 34116 ft 440 kts 230°
2026-05-06 18:47 39.90094 -102.33741 34121 ft 441 kts 230°
2026-05-06 18:48 39.85420 -102.40028 34128 ft 442 kts 230°
2026-05-06 18:48 39.80614 -102.46514 34124 ft 441 kts 230°
2026-05-06 18:49 39.75755 -102.53059 34130 ft 442 kts 230°
2026-05-06 18:49 39.70802 -102.59744 34131 ft 442 kts 230°
2026-05-06 18:50 39.65816 -102.66489 34137 ft 441 kts 230°
2026-05-06 18:50 39.61160 -102.72772 34143 ft 441 kts 230°
2026-05-06 18:51 39.56172 -102.79308 34145 ft 442 kts 229°
2026-05-06 18:51 39.51080 -102.85943 34145 ft 441 kts 229°
2026-05-06 18:52 39.46001 -102.92593 34143 ft 441 kts 229°
2026-05-06 18:52 39.40884 -102.99291 34141 ft 441 kts 229°
2026-05-06 18:53 39.35766 -103.06003 34144 ft 442 kts 229°
2026-05-06 18:53 39.30680 -103.12680 34140 ft 441 kts 229°
2026-05-06 18:54 39.25587 -103.19350 34137 ft 441 kts 229°
2026-05-06 18:54 39.20552 -103.25990 34137 ft 441 kts 229°
2026-05-06 18:55 39.15534 -103.32563 34136 ft 439 kts 229°
2026-05-06 18:55 39.10563 -103.39129 34136 ft 439 kts 229°
2026-05-06 18:56 39.05566 -103.45690 34132 ft 441 kts 229°
2026-05-06 18:56 39.00541 -103.52266 34125 ft 441 kts 228°
2026-05-06 18:57 38.95377 -103.58808 34125 ft 442 kts 229°
2026-05-06 18:57 38.90254 -103.65338 34122 ft 442 kts 228°
2026-05-06 18:58 38.85276 -103.71690 34131 ft 442 kts 228°
2026-05-06 18:58 38.80236 -103.78136 34128 ft 441 kts 228°
2026-05-06 18:59 38.75222 -103.84549 34124 ft 441 kts 228°
2026-05-06 18:59 38.70204 -103.90963 34120 ft 441 kts 228°
2026-05-06 19:00 38.65212 -103.97369 34124 ft 442 kts 228°
2026-05-06 19:00 38.60274 -104.03686 34122 ft 443 kts 229°
2026-05-06 19:01 38.55181 -104.10229 34125 ft 443 kts 229°
2026-05-06 19:01 38.50178 -104.16641 34126 ft 442 kts 229°
2026-05-06 19:02 38.45466 -104.22700 34130 ft 442 kts 229°
2026-05-06 19:02 38.40576 -104.28883 34137 ft 444 kts 229°
2026-05-06 19:03 38.36229 -104.34386 34135 ft 444 kts 230°
2026-05-06 19:03 38.31550 -104.40254 34154 ft 445 kts 229°
2026-05-06 19:04 38.26882 -104.46457 34144 ft 441 kts 235°
2026-05-06 19:04 38.23639 -104.51498 34141 ft 441 kts 233°
2026-05-06 19:05 38.19870 -104.57101 34141 ft 441 kts 233°
2026-05-06 19:05 38.15163 -104.64008 34147 ft 443 kts 233°
2026-05-06 19:06 38.10656 -104.70626 34158 ft 444 kts 232°
2026-05-06 19:06 38.06290 -104.77077 34161 ft 444 kts 233°
2026-05-06 19:07 38.01951 -104.83484 34153 ft 443 kts 232°
2026-05-06 19:07 37.97687 -104.89805 34143 ft 443 kts 233°
2026-05-06 19:08 37.93455 -104.96054 34135 ft 443 kts 233°
2026-05-06 19:08 37.89079 -105.02539 34123 ft 444 kts 233°
2026-05-06 19:09 37.84930 -105.08705 34115 ft 444 kts 233°
2026-05-06 19:09 37.80602 -105.15102 34093 ft 445 kts 234°
2026-05-06 19:10 37.76400 -105.21352 34090 ft 446 kts 233°
2026-05-06 19:10 37.72161 -105.27556 34082 ft 446 kts 232°
2026-05-06 19:11 37.67843 -105.33765 34066 ft 447 kts 232°
2026-05-06 19:11 37.63490 -105.40076 34071 ft 447 kts 233°
2026-05-06 19:12 37.58957 -105.46603 34076 ft 448 kts 233°
2026-05-06 19:12 37.54565 -105.52965 34068 ft 447 kts 233°
2026-05-06 19:13 37.50178 -105.59322 34075 ft 447 kts 233°
2026-05-06 19:13 37.45898 -105.65546 34068 ft 447 kts 232°
2026-05-06 19:14 37.41663 -105.71696 34075 ft 447 kts 232°
2026-05-06 19:14 37.37135 -105.78256 34077 ft 448 kts 233°
2026-05-06 19:15 37.32741 -105.85234 34072 ft 445 kts 237°
2026-05-06 19:15 37.28478 -105.92461 34076 ft 446 kts 237°
2026-05-06 19:16 37.24191 -105.99645 34069 ft 447 kts 236°
2026-05-06 19:16 37.20264 -106.06207 34047 ft 445 kts 237°
2026-05-06 19:17 37.16391 -106.12727 34024 ft 444 kts 237°
2026-05-06 19:17 37.12481 -106.19287 34047 ft 444 kts 237°
2026-05-06 19:18 37.08602 -106.25827 34055 ft 444 kts 236°
2026-05-06 19:18 37.04751 -106.32303 34050 ft 445 kts 237°
2026-05-06 19:19 37.00954 -106.38702 34043 ft 447 kts 238°
2026-05-06 19:19 36.97066 -106.45279 34036 ft 448 kts 237°
2026-05-06 19:20 36.93117 -106.51938 34039 ft 448 kts 237°
2026-05-06 19:20 36.89233 -106.58508 34038 ft 449 kts 237°
2026-05-06 19:21 36.85474 -106.64835 34035 ft 449 kts 237°
2026-05-06 19:21 36.81679 -106.71269 34055 ft 449 kts 237°
2026-05-06 19:22 36.77815 -106.77621 34060 ft 451 kts 237°
2026-05-06 19:22 36.73941 -106.83966 34060 ft 453 kts 237°
2026-05-06 19:23 36.70072 -106.90364 34060 ft 453 kts 235°
2026-05-06 19:23 36.66115 -106.96874 34064 ft 455 kts 237°
2026-05-06 19:24 36.62232 -107.03287 34062 ft 455 kts 236°
2026-05-06 19:24 36.58317 -107.09719 34089 ft 455 kts 237°
2026-05-06 19:25 36.54437 -107.16146 34094 ft 455 kts 237°
2026-05-06 19:25 36.50458 -107.22726 34111 ft 453 kts 237°
2026-05-06 19:26 36.46549 -107.29193 34113 ft 454 kts 236°
2026-05-06 19:26 36.42558 -107.35707 34121 ft 454 kts 236°
2026-05-06 19:27 36.38486 -107.42279 34128 ft 452 kts 237°
2026-05-06 19:27 36.34533 -107.48728 34116 ft 452 kts 236°
2026-05-06 19:28 36.30511 -107.55267 34119 ft 452 kts 236°
2026-05-06 19:28 36.26461 -107.61806 34127 ft 452 kts 236°
2026-05-06 19:29 36.22419 -107.68426 34127 ft 453 kts 237°
2026-05-06 19:29 36.18454 -107.74861 34126 ft 452 kts 236°
2026-05-06 19:30 36.14411 -107.81265 34126 ft 451 kts 236°
2026-05-06 19:30 36.10338 -107.87733 34132 ft 453 kts 236°
2026-05-06 19:31 36.06216 -107.94286 34113 ft 451 kts 235°
2026-05-06 19:31 35.99867 -108.04376 34117 ft 449 kts 236°
2026-05-06 19:32 35.95782 -108.10875 34115 ft 449 kts 236°
2026-05-06 19:32 35.91681 -108.17409 34114 ft 449 kts 237°
2026-05-06 19:33 35.87706 -108.23740 34101 ft 449 kts 236°
2026-05-06 19:33 35.83770 -108.30011 34118 ft 451 kts 236°
2026-05-06 19:34 35.79865 -108.36260 34117 ft 453 kts 236°
2026-05-06 19:34 35.75891 -108.42622 34125 ft 453 kts 237°
2026-05-06 19:35 35.71921 -108.48955 34128 ft 452 kts 237°
2026-05-06 19:35 35.67911 -108.55330 34139 ft 452 kts 235°
2026-05-06 19:36 35.63757 -108.61790 34133 ft 452 kts 236°
2026-05-06 19:36 35.59610 -108.68302 34146 ft 453 kts 235°
2026-05-06 19:37 35.55452 -108.74815 34145 ft 453 kts 235°
2026-05-06 19:37 35.51419 -108.81144 34132 ft 452 kts 235°
2026-05-06 19:38 35.47194 -108.87580 34146 ft 453 kts 232°
2026-05-06 19:38 35.42781 -108.93512 34144 ft 456 kts 230°
2026-05-06 19:39 35.38180 -108.99376 34142 ft 458 kts 229°
2026-05-06 19:39 35.33555 -109.05299 34162 ft 457 kts 230°
2026-05-06 19:40 35.28831 -109.11345 34157 ft 455 kts 229°
2026-05-06 19:40 35.24417 -109.17011 34159 ft 454 kts 230°
2026-05-06 19:41 35.19992 -109.22662 34169 ft 456 kts 229°
2026-05-06 19:41 35.15582 -109.28347 34162 ft 457 kts 230°
2026-05-06 19:42 35.11078 -109.34096 34169 ft 458 kts 230°
2026-05-06 19:42 35.06634 -109.39831 34166 ft 457 kts 230°
2026-05-06 19:43 35.02246 -109.45450 34168 ft 456 kts 229°
2026-05-06 19:43 34.97873 -109.51075 34170 ft 457 kts 230°
2026-05-06 19:44 34.93333 -109.56919 34169 ft 458 kts 230°
2026-05-06 19:44 34.88138 -109.63593 34163 ft 457 kts 230°
2026-05-06 19:45 34.83069 -109.70068 34176 ft 456 kts 229°
2026-05-06 19:45 34.77994 -109.76533 34167 ft 457 kts 229°
2026-05-06 19:46 34.72823 -109.83136 34141 ft 453 kts 232°
2026-05-06 19:46 34.68876 -109.90721 34166 ft 444 kts 248°
2026-05-06 19:47 34.65877 -109.98841 34162 ft 447 kts 248°
2026-05-06 19:47 34.62806 -110.07021 34151 ft 449 kts 248°
2026-05-06 19:48 34.59688 -110.15276 34136 ft 449 kts 247°
2026-05-06 19:48 34.56619 -110.23429 34094 ft 448 kts 248°
2026-05-06 19:49 34.55096 -110.27516 33527 ft 451 kts 248°
2026-05-06 19:49 34.53549 -110.31674 32918 ft 452 kts 248°
2026-05-06 19:49 34.52033 -110.35709 32815 ft 442 kts 248°
2026-05-06 19:49 34.50534 -110.39729 32804 ft 433 kts 249°
2026-05-06 19:50 34.47589 -110.47587 32034 ft 430 kts 249°
2026-05-06 19:50 34.46127 -110.51459 31225 ft 433 kts 248°
2026-05-06 19:50 34.44617 -110.55336 30396 ft 437 kts 248°
2026-05-06 19:51 34.43124 -110.59307 29510 ft 440 kts 248°
2026-05-06 19:51 34.41577 -110.63265 28711 ft 440 kts 248°
2026-05-06 19:51 34.40098 -110.67197 27923 ft 440 kts 248°
2026-05-06 19:51 34.38732 -110.70834 27449 ft 432 kts 248°
2026-05-06 19:52 34.37393 -110.74355 27320 ft 419 kts 248°
2026-05-06 19:52 34.36017 -110.77673 27273 ft 415 kts 241°
2026-05-06 19:52 34.34392 -110.80662 27228 ft 417 kts 233°
2026-05-06 19:52 34.32504 -110.83355 26795 ft 418 kts 227°
2026-05-06 19:53 34.30487 -110.85877 26355 ft 420 kts 228°
2026-05-06 19:53 34.28463 -110.88484 25895 ft 421 kts 228°
2026-05-06 19:53 34.26435 -110.91108 25628 ft 420 kts 228°
2026-05-06 19:53 34.24433 -110.93688 25266 ft 418 kts 229°
2026-05-06 19:54 34.22436 -110.96281 24775 ft 415 kts 227°
2026-05-06 19:54 34.20475 -110.98834 24255 ft 412 kts 228°
2026-05-06 19:54 34.18534 -111.01338 23715 ft 410 kts 228°
2026-05-06 19:54 34.16581 -111.03866 23177 ft 408 kts 227°
2026-05-06 19:55 34.14659 -111.06342 22635 ft 406 kts 229°
2026-05-06 19:55 34.12732 -111.08830 22383 ft 398 kts 227°
2026-05-06 19:55 34.10830 -111.11275 21881 ft 398 kts 228°
2026-05-06 19:55 34.08921 -111.13706 21269 ft 399 kts 227°
2026-05-06 19:56 34.07003 -111.16151 20665 ft 399 kts 227°
2026-05-06 19:56 34.05098 -111.18593 20061 ft 400 kts 228°
2026-05-06 19:56 34.03206 -111.21028 19465 ft 400 kts 227°
2026-05-06 19:56 34.01303 -111.23456 18865 ft 400 kts 228°
2026-05-06 19:57 33.99389 -111.25898 18288 ft 400 kts 229°
2026-05-06 19:57 33.97457 -111.28374 17685 ft 400 kts 227°
2026-05-06 19:57 33.95562 -111.30809 17122 ft 399 kts 227°
2026-05-06 19:57 33.93676 -111.33231 16573 ft 397 kts 229°
2026-05-06 19:58 33.91792 -111.35636 16079 ft 382 kts 229°
2026-05-06 19:58 33.90026 -111.37893 16013 ft 360 kts 227°
2026-05-06 19:58 33.88326 -111.39962 15988 ft 344 kts 223°
2026-05-06 19:58 33.86504 -111.41800 15817 ft 335 kts 217°
2026-05-06 19:59 33.84610 -111.43446 15268 ft 334 kts 217°
2026-05-06 19:59 33.82717 -111.45032 14775 ft 328 kts 214°
2026-05-06 19:59 33.80861 -111.46581 14319 ft 324 kts 214°
2026-05-06 19:59 33.78897 -111.47876 13923 ft 323 kts 201°
2026-05-06 20:00 33.76763 -111.48705 13431 ft 322 kts 192°
2026-05-06 20:00 33.74558 -111.49229 12932 ft 322 kts 191°
2026-05-06 20:00 33.72351 -111.49702 12458 ft 321 kts 190°
2026-05-06 20:00 33.70156 -111.50193 11986 ft 319 kts 191°
2026-05-06 20:01 33.68022 -111.50710 11533 ft 314 kts 193°
2026-05-06 20:01 33.65894 -111.51248 11087 ft 309 kts 191°
2026-05-06 20:01 33.63800 -111.51785 10688 ft 304 kts 193°
2026-05-06 20:01 33.61744 -111.52312 10314 ft 298 kts 191°
2026-05-06 20:02 33.59758 -111.52844 10009 ft 293 kts 195°
2026-05-06 20:02 33.57766 -111.53513 9607 ft 293 kts 198°
2026-05-06 20:02 33.55863 -111.54285 9153 ft 292 kts 200°
2026-05-06 20:02 33.53949 -111.55115 8718 ft 289 kts 201°
2026-05-06 20:03 33.52173 -111.55901 8325 ft 285 kts 200°
2026-05-06 20:03 33.50364 -111.56686 7925 ft 276 kts 201°
2026-05-06 20:03 33.48575 -111.57449 7482 ft 269 kts 199°
2026-05-06 20:03 33.46865 -111.58168 7328 ft 256 kts 201°
2026-05-06 20:04 33.45197 -111.58974 7327 ft 253 kts 217°
2026-05-06 20:04 33.44024 -111.60496 7314 ft 250 kts 244°
2026-05-06 20:04 33.43572 -111.62468 6949 ft 244 kts 270°
2026-05-06 20:04 33.43630 -111.64454 6516 ft 233 kts 279°
2026-05-06 20:05 33.43847 -111.66330 6301 ft 218 kts 278°
2026-05-06 20:05 33.44023 -111.68112 5997 ft 216 kts 275°
2026-05-06 20:05 33.44082 -111.69903 5684 ft 213 kts 272°
2026-05-06 20:05 33.44097 -111.71693 5405 ft 213 kts 271°
2026-05-06 20:06 33.44101 -111.73476 5212 ft 212 kts 271°
2026-05-06 20:06 33.44097 -111.75234 4835 ft 208 kts 271°
2026-05-06 20:06 33.44091 -111.76923 4582 ft 194 kts 271°
2026-05-06 20:06 33.44087 -111.78500 4342 ft 183 kts 271°
2026-05-06 20:07 33.44084 -111.80001 4138 ft 178 kts 271°
2026-05-06 20:07 33.44085 -111.81491 3908 ft 178 kts 271°
2026-05-06 20:07 33.44085 -111.82992 3682 ft 177 kts 271°
2026-05-06 20:07 33.44085 -111.84470 3441 ft 174 kts 270°
2026-05-06 20:08 33.44086 -111.85924 3236 ft 171 kts 270°
2026-05-06 20:08 33.44084 -111.87368 3008 ft 171 kts 270°
2026-05-06 20:08 33.44084 -111.88806 2794 ft 170 kts 270°
2026-05-06 20:08 33.44083 -111.90277 2562 ft 171 kts 270°
2026-05-06 20:09 33.44083 -111.91715 2334 ft 169 kts 270°
2026-05-06 20:09 33.44085 -111.93188 2112 ft 170 kts 270°
2026-05-06 20:09 33.44089 -111.94679 1886 ft 168 kts 270°
2026-05-06 20:09 33.44088 -111.96207 1651 ft 168 kts 269°
2026-05-06 20:10 33.44091 -111.97681 1464 ft 168 kts 267°
2026-05-06 20:10 33.44088 -111.99200 1215 ft 171 kts 270°
2026-05-06 20:10 33.44091 -112.00629 1139 ft 122 kts 269°
2026-05-06 20:10 33.44092 -112.01349 1136 ft 45 kts 270°
2026-05-06 20:11 33.44081 -112.01656 1133 ft 21 kts 246°
2026-05-06 20:11 33.43978 -112.01633 1133 ft 16 kts 95°
2026-05-06 20:11 33.43977 -112.01622 1133 ft 0 kts 95°
2026-05-06 20:12 33.43977 -112.01620 1133 ft 0 kts 95°
2026-05-06 20:12 33.43976 -112.01585 1133 ft 10 kts 91°
2026-05-06 20:12 33.43977 -112.01435 1134 ft 19 kts 90°
2026-05-06 20:12 33.43977 -112.01257 1136 ft 20 kts 90°
2026-05-06 20:13 33.43977 -112.01069 1136 ft 22 kts 90°
2026-05-06 20:13 33.43977 -112.00872 1138 ft 22 kts 90°
2026-05-06 20:13 33.43976 -112.00674 1139 ft 23 kts 90°
2026-05-06 20:13 33.43973 -112.00502 1139 ft 14 kts 92°
2026-05-06 20:14 33.43941 -112.00379 1139 ft 15 kts 152°
2026-05-06 20:14 33.43818 -112.00381 1139 ft 17 kts 184°
2026-05-06 20:14 33.43682 -112.00384 1139 ft 18 kts 178°
2026-05-06 20:14 33.43529 -112.00380 1136 ft 21 kts 180°
2026-05-06 20:15 33.43363 -112.00382 1135 ft 23 kts 181°
2026-05-06 20:15 33.43239 -112.00405 1134 ft 17 kts 227°
2026-05-06 20:15 33.43214 -112.00552 1136 ft 16 kts 268°
2026-05-06 20:15 33.43213 -112.00715 1136 ft 17 kts 271°
2026-05-06 20:16 33.43214 -112.00887 1136 ft 19 kts 270°
2026-05-06 20:16 33.43216 -112.01077 1136 ft 21 kts 270°
2026-05-06 20:16 33.43215 -112.01281 1134 ft 23 kts 269°
2026-05-06 20:16 33.43216 -112.01475 1133 ft 14 kts 270°
2026-05-06 20:17 33.43150 -112.01565 1131 ft 16 kts 190°
2026-05-06 20:17 33.43026 -112.01608 1130 ft 19 kts 213°
2026-05-06 20:17 33.42894 -112.01657 1130 ft 20 kts 181°
2026-05-06 20:17 33.42789 -112.01689 1128 ft 14 kts 239°
2026-05-06 20:18 33.42773 -112.01829 1127 ft 17 kts 256°
2026-05-06 20:18 33.42689 -112.01887 1127 ft 6 kts 182°
2026-05-06 20:18 33.42646 -112.01866 1127 ft 7 kts 127°
2026-05-06 20:18 33.42636 -112.01818 1127 ft 0 kts 93°
2026-05-06 20:19 33.42636 -112.01817 1127 ft 0 kts 93°
2026-05-06 20:19 33.42636 -112.01812 1127 ft 1 kts 93°
2026-05-06 20:19 33.42635 -112.01806 1127 ft 0 kts 92°
2026-05-06 21:13 33.42635 -112.01805 1127 ft 0 kts 92°
2026-05-06 21:13 33.42635 -112.01806 1127 ft 0 kts 92°
2026-05-06 21:13 33.42635 -112.01805 1127 ft 0 kts 92°
2026-05-06 21:14 33.42635 -112.01806 1127 ft 0 kts 92°
2026-05-06 21:14 33.42635 -112.01805 1127 ft 0 kts 92°
2026-05-06 21:15 33.42635 -112.01806 1127 ft 0 kts 92°
2026-05-06 21:15 33.42635 -112.01805 1127 ft 0 kts 92°
2026-05-06 21:16 33.42634 -112.01801 1127 ft 0 kts 89°
2026-05-06 21:16 33.42633 -112.01799 1127 ft 1 kts 87°
2026-05-06 21:16 33.42633 -112.01795 1127 ft 0 kts 85°
2026-05-06 21:17 33.42632 -112.01793 1127 ft 0 kts 84°
2026-05-06 21:17 33.42631 -112.01788 1127 ft 0 kts 82°
2026-05-06 21:17 33.42631 -112.01785 1127 ft 0 kts 82°
2026-05-06 21:17 33.42631 -112.01775 1127 ft 4 kts 82°
2026-05-06 21:18 33.42632 -112.01746 1127 ft 7 kts 79°
2026-05-06 21:18 33.42643 -112.01598 1137 ft 0 kts
2026-05-06 21:18 33.42642 -112.01598 1144 ft 0 kts
2026-05-06 21:18 33.42608 -112.01498 1130 ft 0 kts 101°
2026-05-06 21:19 33.42607 -112.01498 1130 ft 0 kts 100°
2026-05-06 21:20 33.42606 -112.01498 1130 ft 0 kts 99°
2026-05-06 21:21 33.42605 -112.01498 1130 ft 0 kts 97°
2026-05-06 21:21 33.42604 -112.01498 1130 ft 0 kts 96°
2026-05-06 21:25 33.42603 -112.01498 1130 ft 0 kts 96°
2026-05-06 21:29 33.42602 -112.01498 1130 ft 0 kts 95°
2026-05-06 21:30 33.42601 -112.01498 1130 ft 0 kts 94°
2026-05-06 21:32 33.42600 -112.01498 1130 ft 0 kts 93°
2026-05-06 21:33 33.42599 -112.01498 1130 ft 0 kts 92°
2026-05-06 21:34 33.42598 -112.01498 1130 ft 0 kts 91°
2026-05-06 21:35 33.42597 -112.01498 1130 ft 0 kts 91°
2026-05-06 21:36 33.42596 -112.01497 1130 ft 0 kts 90°
2026-05-06 21:36 33.42595 -112.01497 1130 ft 0 kts 89°